Location: Holcomb Observatory and Planetarium
(39.8415°N, 86.1714°W)
Time: 02:52:01
(UTC-04:00)

ISS - Visible Passes

Search period start: 29 July 2015 00:00
Search period end: 08 August 2015 00:00
Orbit: 401 x 403 km, 51.6° (Epoch: 29 July)

Date Brightness Start Highest point End Pass type
(mag) Time Alt. Az. Time Alt. Az. Time Alt. Az.
29 Jul 0.1 03:20:01 10° NNW 03:21:00 11° N 03:22:00 10° NNE visible
29 Jul -0.9 04:55:35 10° NNW 04:58:20 24° NNE 05:01:06 10° E visible
30 Jul 0.2 02:27:13 10° N 02:27:40 11° N 02:28:25 10° NNE visible
30 Jul -0.3 04:02:53 10° NNW 04:05:09 17° NNE 04:07:27 10° ENE visible
30 Jul -3.4 05:38:42 10° NW 05:41:59 89° NNE 05:45:14 10° SE visible
30 Jul -2.9 22:17:29 10° SSW 22:20:33 39° SE 22:23:36 10° ENE visible
30 Jul -1.1 23:54:14 10° W 23:56:36 25° NW 23:56:36 25° NW visible
31 Jul 0.0 03:10:12 10° NNW 03:11:54 13° NNE 03:13:38 10° NE visible
31 Jul -2.2 04:45:49 10° NW 04:48:58 46° NNE 04:52:08 10° ESE visible
31 Jul -1.9 21:25:17 10° S 21:27:42 20° SE 21:30:10 10° E visible
31 Jul -2.1 23:00:49 10° WSW 23:03:56 42° NNW 23:07:04 10° NE visible
01 Aug 0.0 00:39:23 10° NW 00:41:03 13° NNW 00:41:44 12° N visible
01 Aug0.702:22:06ENE02:22:06ENE02:14:26NWvisible
01 Aug -1.2 03:55:03 24° N 03:55:53 27° NNE 03:58:45 10° E visible
01 Aug -2.8 05:29:20 10° WNW 05:32:22 36° SW 05:35:22 10° SSE visible
01 Aug -3.3 22:07:40 10° SW 22:10:55 82° NW 22:14:11 10° NE visible
01 Aug -0.3 23:45:33 10° WNW 23:47:47 17° NNW 23:49:59 10° NNE visible
02 Aug -0.7 04:42:24 12° SE 04:42:24 12° SE 04:42:42 10° SE visible
02 Aug -0.8 22:51:52 10° W 22:54:34 23° NNW 22:57:16 10° NNE visible
03 Aug 0.1 00:30:59 10° NNW 00:31:55 11° N 00:32:50 10° NNE visible
03 Aug -1.7 21:58:22 10° W 22:01:25 36° NNW 22:04:29 10° NE visible
03 Aug 0.0 23:37:05 10° NW 23:38:35 12° N 23:40:04 10° NNE visible
04 Aug -0.3 22:43:13 10° WNW 22:45:17 16° NNW 22:47:20 10° NNE visible
05 Aug 0.1 00:22:00 10° N 00:22:48 11° N 00:23:12 10° N visible
05 Aug -0.7 21:49:27 10° WNW 21:52:02 21° NNW 21:54:37 10° NNE visible
05 Aug 0.0 23:28:36 10° NNW 23:29:25 11° N 23:30:15 10° N visible
06 Aug -0.2 22:34:44 10° NNW 22:36:05 12° N 22:37:23 10° NNE visible
07 Aug 0.0 00:12:11 10° NNW 00:13:14 12° N 00:13:14 12° N visible
07 Aug -0.4 21:40:50 10° NW 21:42:45 14° NNW 21:44:39 10° NNE visible
07 Aug -0.2 23:19:23 10° NNW 23:20:16 11° N 23:21:11 10° NNE visible
